Find Starlink 36595

NORAD ID: 67639 Int'l Des: 2026-020 Owner: SPXS Country: US Constellation: starlink operational
LEOCIRCULAR

当前视图

正在加载3D地球...

关于 Starlink 36595

正在加载描述...

即将过境

Passes for default location (London). Set your location on the main map for personalized predictions.

高度历史

Loading altitude history...

两行轨道根数

1 67639U 26020Y 26146.17508065 -.00004601 00000-0 -15776-3 0 9994
2 67639 43.0040 62.2010 0001588 276.6827 83.3844 15.27576838 17960
Epoch: May 26, 2026 • Age: 16 hours

当前状态

高度 483.4 km
速度 7.63 km/s
星下点 24.84°N, 97.25°W
发射日期 Jan 30, 2026
运行时间 0.3 years
类型 internet

技术详情

分类 Payload
质量 575.00 kg
干质量 530.00 kg
总质量 575.00 kg
长度 0.30 m
直径 4.10 m
跨度 29.00 m
形状 Box + pan
制造商 SPXS
平台类型 Starlink V2MO
阶段状态 In Orbit
所有者/国家 SPXS/US

Most Searched